Rutherfordton, NC

1:41 AM EDT on August 30, 2016 (GMT -0400)
Rutherford County-Marchman

Weather History for KFQD - April, 2013

Change the Weather History Date:

Thursday, April 11, 2013

  Actual Average (KAVL) Record (KAVL)
Temperature  
Mean Temperature 70 °F 54 °F  
Max Temperature 79 °F 67 °F 83 °F (2001)
Min Temperature 60 °F 42 °F 24 °F (1966)
Degree Days  
Heating Degree Days 0 11  
Month to date heating degree days 137  
Since 1 July heating degree days 3909  
Cooling Degree Days 4 0  
Month to date cooling degree days 0  
Year to date cooling degree days 1  
Growing Degree Days 20 (Base 50)    
Moisture  
Dew Point 58 °F    
Average Humidity 68    
Maximum Humidity 88    
Minimum Humidity 45    
Precipitation  
Precipitation 0.00 in 0.11 in 1.58 in (1962)
Month to date precipitation 1.25  
Year to date precipitation 12.51  
Snow  
Snow 0.00 in 0.00 in 2.00 in (1956)
Month to date snowfall 0.4  
Since 1 July snowfall 9.6  
Snow Depth -    
Sea Level Pressure  
Sea Level Pressure 29.90 in    
Wind  
Wind Speed 8 mph (South)    
Max Wind Speed 18 mph    
Max Gust Speed 34 mph    
Visibility 10 miles    
Events Rain , Thunderstorm    
T = Trace of Precipitation, MM = Missing Value Source: NWS Daily Summary

Daily Weather History Graph

Daily Weather History Graph

Search for Another Location

Airport or City:

Trip Planner

Search our weather history database for the weather conditions in past years. The results will help you decide how hot, cold, wet, or windy it might be!

Date:

Astronomy

Apr. 11, 2013 Rise Set
Actual Time 7:00 AM EDT 7:57 PM EDT
Civil Twilight 6:34 AM EDT 8:23 PM EDT
Nautical Twilight 6:03 AM EDT 8:54 PM EDT
Astronomical Twilight 5:31 AM EDT 9:26 PM EDT
Moon 7:34 AM EDT (4/11) 9:26 PM EDT (4/11)
Length of Visible Light 13h 49m
Length of Day
12h 57m
New Moon, 2% of the Moon is Illuminated
Apr 11
New Moon
Apr 18
First Quarter
Apr 25
Full
May 2
Last Quarter
May 9
New

Hourly Weather History & Observations

Time (EDT) Temp. Dew Point Humidity Pressure Visibility Wind Dir Wind Speed Gust Speed Precip Events Conditions
12:15 AM 69.6 °F 54.5 °F 59% 29.99 in 10.0 mi Calm Calm - N/A   Clear
12:35 AM 69.3 °F 54.5 °F 59% 29.99 in 10.0 mi SSW 10.4 mph - N/A   Clear
12:55 AM 67.1 °F 54.5 °F 64% 29.99 in 10.0 mi SSW 8.1 mph - N/A   Clear
1:15 AM 67.5 °F 54.5 °F 63% 29.98 in 10.0 mi SSW 9.2 mph - N/A   Clear
1:35 AM 67.1 °F 54.7 °F 64% 29.97 in 10.0 mi SSW 9.2 mph - N/A   Clear
1:55 AM 66.4 °F 54.7 °F 66% 29.98 in 10.0 mi SSW 10.4 mph - N/A   Clear
2:15 AM 63.7 °F 54.5 °F 72% 29.98 in 10.0 mi South 4.6 mph - N/A   Clear
2:35 AM 63.0 °F 54.7 °F 74% 29.97 in 10.0 mi South 8.1 mph - N/A   Clear
2:55 AM 62.2 °F 54.5 °F 76% 29.97 in 10.0 mi SSE 4.6 mph - N/A   Clear
3:15 AM 62.6 °F 54.5 °F 75% 29.97 in 10.0 mi South 10.4 mph - N/A   Clear
3:35 AM 62.1 °F 54.7 °F 77% 29.96 in 10.0 mi South 6.9 mph - N/A   Clear
3:55 AM 62.6 °F 54.9 °F 76% 29.96 in 10.0 mi South 8.1 mph - N/A   Clear
4:15 AM 62.1 °F 54.9 °F 77% 29.96 in 10.0 mi South 4.6 mph - N/A   Clear
4:35 AM 61.5 °F 54.9 °F 79% 29.96 in 10.0 mi South 5.8 mph - N/A   Clear
4:55 AM 60.4 °F 55.2 °F 83% 29.96 in 10.0 mi South 5.8 mph - N/A   Clear
5:15 AM 60.8 °F 55.4 °F 82% 29.96 in 10.0 mi South 5.8 mph - N/A   Clear
5:35 AM 60.6 °F 55.4 °F 83% 29.96 in 10.0 mi South 6.9 mph - N/A   Clear
5:55 AM 60.1 °F 55.6 °F 85% 29.96 in 10.0 mi South 5.8 mph - N/A   Clear
6:15 AM 60.3 °F 55.8 °F 85% 29.97 in 10.0 mi Calm Calm - N/A   Clear
6:35 AM 60.4 °F 55.9 °F 85% 29.97 in 10.0 mi South 4.6 mph - N/A   Clear
6:55 AM 60.8 °F 56.3 °F 85% 29.97 in 10.0 mi South 4.6 mph - N/A   Clear
7:15 AM 60.1 °F 56.3 °F 87% 29.97 in 10.0 mi South 3.5 mph - N/A   Clear
7:35 AM 60.1 °F 56.7 °F 88% 29.98 in 10.0 mi Calm Calm - N/A   Clear
7:55 AM 62.2 °F 57.7 °F 85% 29.98 in 10.0 mi Calm Calm - N/A   Clear
8:15 AM 63.9 °F 58.5 °F 83% 29.98 in 10.0 mi SSW 3.5 mph - N/A   Clear
8:35 AM 65.3 °F 58.6 °F 79% 29.98 in 10.0 mi SSW 6.9 mph - N/A   Clear
8:55 AM 65.7 °F 58.6 °F 78% 29.98 in 10.0 mi South 4.6 mph - N/A   Clear
9:15 AM 65.3 °F 58.6 °F 79% 29.99 in 10.0 mi SSW 4.6 mph - N/A   Clear
9:35 AM 66.0 °F 59.0 °F 78% 29.98 in 10.0 mi South 9.2 mph - N/A   Clear
9:55 AM 65.3 °F 59.0 °F 80% 29.98 in 10.0 mi South 8.1 mph - N/A   Clear
10:15 AM 68.2 °F 59.7 °F 74% 29.98 in 10.0 mi South 9.2 mph - N/A   Clear
10:35 AM 70.0 °F 59.9 °F 70% 29.97 in 10.0 mi South 9.2 mph 16.1 mph N/A   Clear
10:55 AM 70.9 °F 59.5 °F 67% 29.97 in 10.0 mi South 8.1 mph 17.3 mph N/A   Clear
11:15 AM 71.6 °F 59.7 °F 66% 29.97 in 10.0 mi South 12.7 mph 18.4 mph N/A   Clear
11:35 AM 71.8 °F 59.5 °F 65% 29.97 in 10.0 mi South 15.0 mph 20.7 mph N/A   Scattered Clouds
11:55 AM 73.6 °F 59.4 °F 61% 29.97 in 10.0 mi South 10.4 mph 18.4 mph N/A   Scattered Clouds
12:15 PM 74.7 °F 58.5 °F 57% 29.96 in 10.0 mi SSW 12.7 mph 23.0 mph N/A   Scattered Clouds
12:35 PM 75.7 °F 57.9 °F 54% 29.95 in 10.0 mi South 16.1 mph 24.2 mph N/A   Scattered Clouds
1:15 PM 76.5 °F 57.9 °F 53% 29.93 in 10.0 mi South 17.3 mph 34.5 mph N/A   Mostly Cloudy
1:35 PM 75.7 °F 57.0 °F 52% 29.92 in 10.0 mi SSW 13.8 mph 29.9 mph N/A   Mostly Cloudy
2:15 PM 76.6 °F 56.7 °F 50% 29.89 in 10.0 mi South 15.0 mph 23.0 mph N/A   Mostly Cloudy
2:35 PM 77.5 °F 56.5 °F 48% 29.89 in 10.0 mi South 18.4 mph 25.3 mph N/A   Scattered Clouds
2:55 PM 77.0 °F 55.8 °F 48% 29.89 in 10.0 mi South 15.0 mph 25.3 mph N/A   Scattered Clouds
3:15 PM 77.5 °F 56.3 °F 48% 29.87 in 10.0 mi WSW 12.7 mph 20.7 mph N/A   Scattered Clouds
3:35 PM 77.7 °F 57.0 °F 49% 29.86 in 10.0 mi SSW 13.8 mph 19.6 mph N/A   Clear
3:55 PM 77.5 °F 56.1 °F 47% 29.85 in 10.0 mi SSW 13.8 mph 26.5 mph N/A   Mostly Cloudy
4:15 PM 79.2 °F 56.1 °F 45% 29.83 in 10.0 mi SSW 5.8 mph 21.9 mph N/A   Scattered Clouds
4:35 PM 78.8 °F 57.2 °F 47% 29.81 in 10.0 mi South 16.1 mph 23.0 mph N/A   Mostly Cloudy
4:55 PM 78.3 °F 57.7 °F 49% 29.80 in 10.0 mi South 8.1 mph 23.0 mph N/A   Scattered Clouds
5:15 PM 77.4 °F 57.6 °F 50% 29.80 in 10.0 mi South 6.9 mph 21.9 mph N/A   Mostly Cloudy
5:35 PM 77.5 °F 57.7 °F 50% 29.80 in 10.0 mi South 8.1 mph 19.6 mph N/A   Overcast
5:55 PM 77.0 °F 57.2 °F 50% 29.80 in 10.0 mi SW 8.1 mph 18.4 mph N/A   Overcast
6:15 PM 76.3 °F 57.9 °F 53% 29.80 in 10.0 mi South 5.8 mph 21.9 mph N/A   Light Drizzle
6:35 PM 76.1 °F 58.3 °F 54% 29.79 in 10.0 mi South 4.6 mph - N/A   Overcast
6:55 PM 75.7 °F 59.0 °F 56% 29.78 in 10.0 mi South 5.8 mph - N/A   Overcast
7:15 PM 75.0 °F 59.2 °F 58% 29.78 in 10.0 mi South 6.9 mph - N/A   Mostly Cloudy
7:35 PM 74.7 °F 59.5 °F 59% 29.78 in 10.0 mi South 5.8 mph 17.3 mph N/A   Overcast
7:55 PM 74.7 °F 60.1 °F 60% 29.78 in 10.0 mi South 13.8 mph 19.6 mph N/A   Overcast
8:15 PM 73.6 °F 60.8 °F 64% 29.77 in 10.0 mi South 9.2 mph 17.3 mph N/A   Overcast
8:35 PM 72.9 °F 61.2 °F 67% 29.77 in 10.0 mi South 9.2 mph - N/A   Overcast
8:55 PM 72.7 °F 61.2 °F 67% 29.76 in 10.0 mi South 10.4 mph 17.3 mph N/A   Overcast
9:15 PM 72.1 °F 61.7 °F 70% 29.75 in 10.0 mi SSE 8.1 mph - N/A Rain , Thunderstorm Light Thunderstorms and Rain
9:35 PM 70.3 °F 63.0 °F 77% 29.76 in 10.0 mi South 15.0 mph 20.7 mph N/A   Overcast
9:55 PM 70.0 °F 63.3 °F 79% 29.75 in 10.0 mi South 11.5 mph 19.6 mph N/A   Overcast
10:15 PM 69.8 °F 63.3 °F 80% 29.76 in 10.0 mi South 11.5 mph 17.3 mph N/A Thunderstorm Overcast
10:35 PM 70.3 °F 63.1 °F 78% 29.76 in 10.0 mi South 16.1 mph 21.9 mph N/A   Overcast
10:55 PM 69.6 °F 63.5 °F 81% 29.75 in 10.0 mi South 17.3 mph 23.0 mph N/A   Overcast
11:15 PM 68.9 °F 63.9 °F 84% 29.75 in 10.0 mi South 16.1 mph 19.6 mph N/A Thunderstorm Overcast
11:35 PM 68.4 °F 64.4 °F 87% 29.74 in 10.0 mi South 15.0 mph 20.7 mph N/A   Overcast
11:55 PM 68.4 °F 64.4 °F 87% 29.74 in 10.0 mi South 16.1 mph 20.7 mph N/A Thunderstorm Overcast